#timestamp,LO_Frequency,Hit,StdDev 
1512252015.2,286046993.6,N
1512252035.0,286046994.2,N
1512252035.9,286046994.2,N
1512252055.8,286046998.3,N
1512252075.6,286046997.4,N
1512252095.4,286046999.6,N
1512252115.3,286046995.9,N
1512252135.1,286046991.9,N
1512252136.0,286046991.9,N
1512252155.8,286046990.7,Y
1512252175.7,286046996.9,P
1512252195.5,286046998.5,N
1512252215.3,286047001.6,N
1512252235.1,286047004.2,N
1512252255.9,286047000.4,N
1512252275.7,286046998.3,N
1512252295.5,286046997.4,N
1512252315.4,286046993.6,N
1512252335.2,286046994.3,N
1512252355.0,286046995.4,N
1512252355.9,286046995.4,N
1512252375.8,286046995.7,N
1512252395.6,286046992.8,N
1512252415.4,286046994.4,N
1512252435.3,286046994.7,N
1512252455.1,286046996.8,N
1512252456.0,286046996.8,N
1512252475.8,286046999.6,N
1512252495.7,286046995.5,N
1512252515.5,286046993.2,N
1512252535.3,286046992.9,N
1512252555.1,286046995.0,N
1512252575.9,286046995.8,N
1512252595.7,286046997.7,N
1512252615.5,286046994.8,N
1512252635.4,286046996.4,N
1512252655.2,286046995.5,N
1512252675.0,286046995.2,N
1512252675.9,286046995.2,N
1512252695.8,286046993.5,N
1512252715.6,286046993.4,N
1512252735.4,286046992.2,N
1512252755.3,286046994.4,N
1512252775.1,286046998.9,N
1512252776.0,286046998.9,N
1512252795.8,286047002.2,N
1512252815.7,286047005.5,N
1512252835.5,286047012.4,Y
1512252855.3,286047017.4,P
1512252875.2,286047022.8,N
1512252895.9,286047027.5,N
1512252915.7,286047028.9,N
1512252935.5,286047030.1,N
1512252955.4,286047033.9,N
1512252975.2,286047041.9,Y
1512252995.0,286047018.5,P
1512252996.0,286047018.5,P
1512253015.8,286047018.7,P
1512253035.6,286047021.1,Y
1512253055.5,286046996.6,P
1512253075.3,286047008.2,N
1512253095.1,286047017.0,N
1512253115.8,286047019.1,N
1512253135.7,286047022.3,N
1512253155.5,286047027.2,Y
1512253175.3,286047017.6,P
1512253195.2,286047020.5,P
1512253215.0,286047021.0,P
1512253215.9,286047021.0,Y
1512253235.8,286047000.9,P
1512253255.6,286047002.3,N
1512253275.4,286047003.0,N
1512253295.2,286047003.5,N
1512253315.1,286047005.7,N
1512253316.0,286047005.7,N
1512253335.8,286047004.3,N
1512253355.6,286047007.3,N
1512253375.5,286047006.3,N
1512253395.3,286047006.4,N
1512253415.1,286047010.8,N
1512253435.9,286047007.8,N
1512253455.7,286047008.0,N
1512253475.5,286047011.8,N
1512253495.4,286047009.5,N
1512253515.2,286047012.1,N
1512253535.0,286047009.5,N
1512253535.9,286047009.5,N
1512253555.8,286047006.2,N
1512253575.6,286047003.7,N
1512253595.4,286047004.0,N
1512253615.2,286046998.7,N
1512253635.1,286046995.4,N
1512253636.0,286046995.4,N
1512253655.8,286046992.8,N
1512253675.6,286046991.5,N
1512253695.5,286046989.2,N
1512253715.3,286046986.3,N
1512253735.1,286046984.3,N
1512253755.9,286046984.2,N
1512253775.7,286046982.6,N
1512253795.5,286046983.0,N
1512253815.4,286046980.9,N
1512253835.2,286046980.7,N
1512253855.0,286046980.1,N
1512253855.9,286046980.1,N
1512253875.8,286046974.5,N
1512253895.6,286046974.8,N
1512253915.4,286046971.8,N
1512253935.3,286046973.3,N
1512253955.1,286046972.4,N
1512253956.0,286046972.4,N
1512253975.8,286046972.2,N
1512253995.7,286046968.1,N
1512254015.5,286046965.6,N
1512254035.3,286046961.0,N
1512254055.2,286046958.3,Y
1512254075.9,286046971.4,P
1512254095.7,286046970.2,P
1512254115.5,286046972.1,P
1512254135.4,286046970.7,Y
1512254155.2,286046990.3,P
1512254175.0,286046988.7,N
1512254175.9,286046988.7,N
1512254195.8,286046989.4,N
1512254215.6,286046988.2,N
1512254235.4,286046986.9,N
1512254255.3,286046985.9,N
1512254275.1,286046988.0,N
1512254295.8,286046985.6,Y
1512254315.7,286046995.5,P
1512254335.5,286046996.3,N
1512254355.3,286046994.4,N
1512254375.2,286046990.7,N
1512254395.9,286046994.4,N
1512254415.7,286046992.8,N
1512254435.6,286046990.0,Y
1512254455.4,286046995.0,P
1512254475.2,286046997.3,N
1512254495.1,286046996.2,N
1512254496.0,286046996.2,N
1512254515.8,286046995.1,Y
1512254535.6,286047001.3,P
1512254555.5,286047000.8,N
1512254575.3,286046995.5,N
1512254595.1,286046997.8,N
1512254615.9,286047000.3,N
1512254635.7,286047000.5,N
1512254655.5,286047001.1,N
1512254675.3,286046999.2,N
1512254695.2,286047000.6,N
1512254715.0,286047001.0,N
1512254715.9,286047001.0,N
1512254735.8,286047003.8,N
1512254755.6,286046999.8,N
1512254775.4,286047000.2,N
1512254795.3,286047005.2,N
1512254815.1,286047007.5,Y
1512254816.0,286047007.5,P
1512254835.8,286047005.3,N
1512254855.7,286047008.7,N
1512254875.5,286047006.5,N
1512254895.3,286047007.9,N
1512254915.2,286047007.8,N
1512254935.9,286047009.6,Y
1512254955.7,286047003.7,P
1512254975.6,286047000.1,N
1512254995.4,286047003.7,N
1512255015.2,286047002.4,N
1512255035.0,286047000.8,N
1512255036.0,286047000.8,N
1512255055.8,286046995.4,N
1512255075.6,286046997.6,N
1512255095.4,286046998.3,N
1512255115.3,286046995.0,N
1512255135.1,286046998.1,N
1512255155.8,286047005.8,N
1512255175.7,286047002.9,N
1512255195.5,286047004.6,N
1512255215.3,286047004.4,N
1512255235.2,286047006.7,N
1512255255.9,286047010.8,Y
1512255275.7,286047010.1,P
1512255295.6,286047013.7,P
1512255315.4,286047015.3,P
1512255335.2,286047020.4,Y
1512255355.1,286047009.3,P
1512255356.0,286047009.3,P
1512255375.8,286047016.8,P
1512255395.6,286047018.1,Y
1512255415.5,286047011.1,P
1512255435.3,286047013.5,P
1512255455.1,286047016.5,P
1512255475.9,286047016.2,Y
1512255495.7,286047003.4,P
1512255515.5,286047004.1,N
1512255535.4,286047000.2,N
1512255555.2,286047002.2,N
1512255575.0,286047003.1,N
1512255575.9,286047003.1,N
1512255595.8,286047005.3,N
